Hanford, WA

11:58 PM PDT on May 27, 2017 (GMT -0700)
Hanford

Weather History for KHMS - January, 2013

Change the Weather History Date:

Wednesday, January 16, 2013

  Actual Average Record
Temperature  
Mean Temperature 22 °F -  
Max Temperature 30 °F 37 °F 64 °F (2011)
Min Temperature 15 °F 26 °F 8 °F (2007)
Degree Days  
Heating Degree Days 42    
Moisture  
Dew Point 21 °F    
Average Humidity 88    
Maximum Humidity 96    
Minimum Humidity 80    
Precipitation  
Precipitation 0.00 in - - ()
Sea Level Pressure  
Sea Level Pressure 30.64 in    
Wind  
Wind Speed 4 mph (WNW)    
Max Wind Speed 7 mph    
Max Gust Speed -    
Visibility 10 miles    
Events      
Averages and records for this station are not official NWS values.
T = Trace of Precipitation, MM = Missing Value Source: NWS Daily Summary

Daily Weather History Graph

Daily Weather History Graph

Search for Another Location

Airport or City:

Trip Planner

Search our weather history database for the weather conditions in past years. The results will help you decide how hot, cold, wet, or windy it might be!

Date:

Astronomy

Jan. 16, 2013 Rise Set
Actual Time 7:37 AM PST 4:39 PM PST
Civil Twilight 7:03 AM PST 5:13 PM PST
Nautical Twilight 6:26 AM PST 5:50 PM PST
Astronomical Twilight 5:50 AM PST 6:26 PM PST
Moon 9:53 AM PST (1/16) 11:01 PM PST (1/16)
Length of Visible Light 10h 09m
Length of Day
9h 02m
Waxing Crescent, 29% of the Moon is Illuminated
Jan 16
Waxing Crescent
Jan 18
First Quarter
Jan 26
Full
Feb 3
Last Quarter
Feb 9
New

Hourly Weather History & Observations

Time (PST) Temp. Windchill Dew Point Humidity Pressure Visibility Wind Dir Wind Speed Gust Speed Precip Events Conditions
12:50 AM 16.7 °F - 15.4 °F 95% 30.61 in 15.0 mi West 1.2 mph - N/A   Clear
1:50 AM 15.4 °F 8.1 °F 14.0 °F 94% 30.61 in 15.0 mi SSW 4.6 mph - N/A   Clear
2:50 AM 15.6 °F 8.3 °F 14.5 °F 95% 30.61 in 15.0 mi ESE 4.6 mph - N/A   Clear
3:50 AM 15.3 °F 9.6 °F 14.0 °F 95% 30.62 in 15.0 mi West 3.5 mph - N/A   Clear
4:50 AM 17.6 °F 12.3 °F 16.5 °F 96% 30.63 in 10.0 mi WSW 3.5 mph - N/A   Overcast
5:50 AM 18.1 °F 12.9 °F 17.1 °F 96% 30.63 in 10.0 mi SSW 3.5 mph - N/A   Mostly Cloudy
6:50 AM 19.2 °F 12.5 °F 18.1 °F 96% 30.63 in 10.0 mi WNW 4.6 mph - N/A   Overcast
7:50 AM 22.6 °F 16.5 °F 21.4 °F 95% 30.63 in 8.0 mi NW 4.6 mph - N/A   Overcast
8:50 AM 24.6 °F 16.7 °F 23.4 °F 95% 30.63 in 6.0 mi WNW 6.9 mph - N/A   Overcast
9:50 AM 26.1 °F 19.4 °F 24.1 °F 92% 30.68 in 6.0 mi NW 5.8 mph - N/A   Overcast
10:50 AM 28.4 °F 22.2 °F 24.4 °F 85% 30.68 in 6.0 mi WNW 5.8 mph - N/A   Overcast
11:50 AM 28.9 °F 23.9 °F 24.3 °F 83% 30.69 in 7.0 mi North 4.6 mph - N/A   Overcast
12:50 PM 29.5 °F 25.9 °F 24.1 °F 80% 30.69 in 8.0 mi NE 3.5 mph - N/A   Overcast
1:50 PM 29.7 °F 26.1 °F 24.1 °F 80% 30.68 in 8.0 mi NE 3.5 mph - N/A   Overcast
2:50 PM 29.8 °F 26.3 °F 24.3 °F 80% 30.68 in 9.0 mi NE 3.5 mph - N/A   Overcast
3:50 PM 30.0 °F 26.5 °F 24.4 °F 80% 30.62 in 9.0 mi NW 3.5 mph - N/A   Overcast
4:50 PM 29.8 °F - 24.4 °F 80% 30.62 in 8.0 mi NE 2.3 mph - N/A   Overcast
5:50 PM 29.7 °F - 24.4 °F 81% 30.61 in 8.0 mi South 2.3 mph - N/A   Overcast
6:50 PM 29.1 °F 24.1 °F 24.6 °F 83% 30.61 in 8.0 mi South 4.6 mph - N/A   Overcast
10:50 PM 29.3 °F - 25.5 °F 86% 30.62 in 10.0 mi WSW 2.3 mph - N/A   Overcast
11:50 PM 29.1 °F - 25.3 °F 86% 30.62 in 10.0 mi South 2.3 mph - N/A   Overcast